Weather History for Pocatello, ID

Change the Weather History Date:

Monday, May 16, 2011

  Actual Average Record
Temperature  
Mean Temperature 43 °F 54 °F  
Max Temperature 52 °F 68 °F 88 °F (1988)
Min Temperature 34 °F 40 °F 25 °F (1974)
Degree Days  
Heating Degree Days 22 11  
Month to date heating degree days 253 214  
Since 1 July heating degree days 6952 6908  
Cooling Degree Days 0 0  
Month to date cooling degree days 0 0  
Year to date cooling degree days 0 0  
Moisture  
Dew Point 27 °F    
Average Humidity 58    
Maximum Humidity 82    
Minimum Humidity 33    
Precipitation  
Precipitation 0.00 in 0.05 in 1.10 in (2005)
Month to date precipitation 1.57 0.75  
Year to date precipitation 6.50 5.12  
Snow  
Snow 0.00 in - - ()
Month to date snowfall T  
Since 1 July snowfall 52.9  
Snow Depth 0.00 in    
Sea Level Pressure  
Sea Level Pressure 29.91 in    
Wind  
Wind Speed 6 mph (SW)    
Max Wind Speed 14 mph    
Max Gust Speed 17 mph    
Visibility 10 miles    
Events      
T = Trace of Precipitation, MM = Missing Value Source: NWS Daily Summary

Daily Weather History Graph

Daily Weather History Graph

Search for Another Location

Airport:

Trip Planner

Search our weather history database for the weather conditions in past years. The results will help you decide how hot, cold, wet, or windy it might be!

Date:

Astronomy

May. 16, 2011 Rise Set
Actual Time 6:06 AM MDT 8:47 PM MDT
Civil Twilight 5:33 AM MDT 9:20 PM MDT
Nautical Twilight 4:52 AM MDT 10:01 PM MDT
Astronomical Twilight 4:05 AM MDT 10:48 PM MDT
Moon 8:26 PM MDT (5/16) 5:12 AM MDT (5/16)
Length of Visible Light 15h 46m
Length of Day
14h 41m
Waxing Gibbous, 99% of the Moon is Illuminated
May 16
Waxing Gibbous
May 17
Full
May 24
Last Quarter
Jun 1
New
Jun 8
First Quarter

Hourly Weather History & Observations

Time (MDT) Temp. Windchill Dew Point Humidity Pressure Visibility Wind Dir Wind Speed Gust Speed Precip Events Conditions
12:53 AM - - - N/A% 29.92 in - North - - N/A   Unknown
1:53 AM - - - N/A% 29.93 in - North - - N/A   Unknown
2:53 AM - - - N/A% 29.93 in - North - - N/A   Unknown
3:53 AM - - - N/A% 29.93 in - North - - N/A   Unknown
4:53 AM 39.0 °F 34.8 °F 28.9 °F 67% 29.87 in 10.0 mi South 5.8 mph - N/A   Unknown
5:53 AM 39.0 °F 34.0 °F 26.1 °F 60% 29.87 in 10.0 mi SSW 6.9 mph - N/A   Overcast
6:00 AM - - - N/A% - - North - - N/A   Unknown
6:53 AM 39.0 °F 36.8 °F 28.0 °F 65% 29.92 in 10.0 mi South 3.5 mph - N/A   Overcast
7:53 AM 41.0 °F 36.4 °F 26.1 °F 55% 30.06 in 10.0 mi SW 6.9 mph - N/A   Overcast
8:53 AM 42.1 °F 37.7 °F 25.0 °F 51% 29.97 in 10.0 mi Variable 6.9 mph - N/A   Mostly Cloudy
9:53 AM 44.1 °F 40.8 °F 21.0 °F 40% 29.97 in 10.0 mi WNW 5.8 mph - N/A   Scattered Clouds
10:53 AM 46.0 °F 41.0 °F 24.1 °F 42% 29.96 in 10.0 mi WNW 10.4 mph - N/A   Scattered Clouds
11:53 AM 46.9 °F - 24.1 °F 41% 29.96 in 10.0 mi WNW 11.5 mph 17.3 mph N/A   Scattered Clouds
12:53 PM 48.9 °F - 25.0 °F 39% 29.94 in 10.0 mi NNW 9.2 mph - N/A   Scattered Clouds
1:53 PM 50.0 °F - 24.1 °F 36% 29.92 in 10.0 mi Variable 5.8 mph - N/A   Scattered Clouds
2:53 PM 51.1 °F - 24.1 °F 35% 29.91 in 10.0 mi NW 5.8 mph - N/A   Scattered Clouds
3:53 PM 50.0 °F - 24.1 °F 36% 29.90 in 10.0 mi WNW 4.6 mph - N/A   Mostly Cloudy
4:53 PM 50.0 °F - 23.0 °F 35% 29.86 in 10.0 mi West 4.6 mph - N/A   Mostly Cloudy
5:53 PM 48.0 °F - 26.1 °F 42% 29.87 in 10.0 mi South 3.5 mph - N/A   Overcast
6:53 PM 46.0 °F 41.0 °F 32.0 °F 58% 29.87 in 10.0 mi SSE 10.4 mph - N/A   Overcast
7:53 PM 46.0 °F 41.9 °F 30.9 °F 56% 29.86 in 10.0 mi SE 8.1 mph - N/A   Mostly Cloudy
8:53 PM 43.0 °F 40.3 °F 32.0 °F 65% 29.86 in 10.0 mi SE 4.6 mph - N/A   Mostly Cloudy
9:53 PM 41.0 °F 38.0 °F 33.1 °F 73% 29.86 in 10.0 mi East 4.6 mph - N/A   Scattered Clouds
10:53 PM 37.9 °F - 32.0 °F 79% 29.85 in 10.0 mi Calm Calm - N/A   Clear
11:53 PM 37.0 °F - 30.9 °F 79% 29.83 in 10.0 mi Calm Calm - N/A   Clear